FW6369 Weather Reports


Display with metric or nautical units.
time (UTC)temp
F
wind
direction
speed
MPH
gust
MPH
rain 1hr
in
rain 24hr
in
rain mn
in
humidity
%
barometer
mb
20260508234549 73 96 3.0 7.0 0.00 0.00 0.00 63 1015.9
20260508233114 73 80 3.0 9.0 0.00 0.00 0.00 63 1015.9
20260508231556 74 211 3.0 10.0 0.00 0.00 0.00 62 1015.9
20260508230100 74 123 5.0 9.0 0.00 0.00 0.00 62 1016.2
20260508224555 74 114 3.0 9.0 0.00 0.00 0.00 64 1016.3
20260508223051 73 158 3.0 12.0 0.00 0.00 0.00 64 1016.6
20260508221548 74 107 4.0 11.0 0.00 0.00 0.00 63 1016.6
20260508220059 75 229 3.0 9.0 0.00 0.00 0.00 63 1016.7
20260508214550 75 211 2.0 11.0 0.00 0.00 0.00 62 1016.8
20260508213050 75 85 2.0 7.0 0.00 0.00 0.00 63 1017.1
20260508211555 74 200 2.0 8.0 0.00 0.00 0.00 62 1017.1
20260508210106 73 177 4.0 8.0 0.00 0.00 0.00 63 1017.3
20260508204553 73 171 2.0 8.0 0.00 0.00 0.00 63 1017.3
20260508203053 71 108 2.0 9.0 0.00 0.00 0.00 66 1017.4
20260508201548 72 202 2.0 8.0 0.00 0.00 0.00 65 1017.7
20260508200052 71 151 2.0 8.0 0.00 0.00 0.00 65 1017.8
20260508194552 71 109 1.0 7.0 0.00 0.00 0.00 65 1018.0
20260508193054 71 186 2.0 6.0 0.00 0.00 0.00 65 1018.1
20260508191553 70 196 2.0 7.0 0.00 0.00 0.00 68 1018.2
20260508184625 69 178 2.0 7.0 0.00 0.00 0.00 68 1018.6
20260508183054 69 207 1.0 5.0 0.00 0.00 0.00 66 1018.6
20260508181606 67 0 1.0 6.0 0.00 0.00 0.00 69 1018.8
20260508180053 68 0 0.0 5.0 0.00 0.00 0.00 69 1018.8
20260508174553 68 186 1.0 5.0 0.00 0.00 0.00 68 1019.1
20260508173051 66 0 1.0 6.0 0.00 0.00 0.00 69 1019.1
20260508171553 66 78 0.0 4.0 0.00 0.00 0.00 69 1018.8
20260508170058 65 0 0.0 3.0 0.00 0.00 0.00 70 1018.8
20260508164559 63 99 0.0 4.0 0.00 0.00 0.00 74 1018.8
20260508163058 61 275 2.0 6.0 0.00 0.00 0.00 75 1018.7
20260508161553 60 15 0.0 6.0 0.00 0.00 0.00 79 1018.8
20260508160050 57 274 1.0 6.0 0.00 0.00 0.00 82 1018.6
20260508154549 56 267 1.0 3.0 0.00 0.00 0.00 86 1018.7
20260508153049 55 30 0.0 3.0 0.00 0.00 0.00 88 1018.7
20260508151559 54 285 0.0 2.0 0.00 0.00 0.00 90 1018.7
20260508150100 54 292 0.0 3.0 0.00 0.00 0.00 91 1018.6
20260508144609 54 238 0.0 2.0 0.00 0.00 0.00 93 1018.5
20260508143057 53 0 0.0 2.0 0.00 0.00 0.00 94 1018.5
20260508141555 53 0 0.0 1.0 0.00 0.00 0.00 95 1018.3
20260508140054 52 0 0.0 2.0 0.00 0.00 0.00 94 1018.3
20260508134557 52 0 0.0 2.0 0.00 0.00 0.00 94 1018.2
20260508133113 52 0 0.0 2.0 0.00 0.00 0.00 94 1018.1
20260508131549 52 218 0.0 2.0 0.00 0.00 0.00 94 1018.1
20260508130050 52 0 0.0 2.0 0.00 0.00 0.00 94 1018.0
20260508124551 52 0 0.0 1.0 0.00 0.00 0.00 95 1017.9
20260508123100 52 209 0.0 2.0 0.00 0.00 0.00 95 1017.9
20260508121550 52 0 0.0 3.0 0.00 0.00 0.00 95 1017.8
20260508120056 52 0 0.0 1.0 0.00 0.00 0.00 95 1017.7
20260508114549 52 121 0.0 2.0 0.00 0.00 0.00 95 1017.9
20260508113106 52 0 0.0 1.0 0.00 0.00 0.00 95 1017.9
20260508111603 52 121 0.0 1.0 0.00 0.00 0.00 95 1017.9
20260508110058 52 0 0.0 1.0 0.00 0.00 0.00 95 1018.1
20260508104554 52 121 0.0 3.0 0.00 0.00 0.00 95 1018.0
20260508103059 52 119 1.0 4.0 0.00 0.00 0.00 94 1018.0
20260508101600 52 161 1.0 4.0 0.00 0.00 0.00 94 1017.8
20260508100057 52 183 1.0 4.0 0.00 0.00 0.00 94 1017.9
20260508094549 52 192 0.0 4.0 0.00 0.00 0.00 93 1017.9
20260508093050 52 129 0.0 3.0 0.00 0.00 0.00 93 1017.9
20260508091558 52 0 0.0 3.0 0.00 0.00 0.00 93 1017.9
20260508090107 52 138 1.0 3.0 0.00 0.00 0.00 93 1017.9
20260508084549 52 0 0.0 2.0 0.00 0.00 0.00 93 1017.8
20260508083052 52 130 1.0 3.0 0.00 0.00 0.00 93 1017.9
20260508081551 52 0 0.0 6.0 0.00 0.00 0.00 93 1018.0
20260508080054 53 211 0.0 2.0 0.00 0.00 0.00 93 1017.9
20260508074555 53 204 0.0 3.0 0.00 0.00 0.00 93 1018.0
20260508073102 53 0 0.0 4.0 0.00 0.00 0.00 93 1018.0
20260508071558 53 134 1.0 6.0 0.00 0.00 0.00 93 1017.8
20260508070056 53 120 1.0 4.0 0.00 0.00 0.00 92 1017.8
20260508064549 53 119 3.0 6.0 0.00 0.00 0.00 92 1017.9
20260508063049 53 128 2.0 7.0 0.00 0.00 0.00 92 1017.8
20260508061552 53 116 1.0 7.0 0.00 0.00 0.00 91 1017.9
20260508060053 54 122 1.0 4.0 0.00 0.00 0.00 90 1017.9
20260508054548 54 119 3.0 9.0 0.00 0.00 0.00 90 1017.8
20260508053113 54 129 2.0 6.0 0.00 0.00 0.00 91 1017.8
20260508051551 54 117 2.0 6.0 0.00 0.00 0.00 90 1017.8
20260508050056 54 105 1.0 6.0 0.00 0.00 0.00 91 1017.8
20260508044557 54 136 2.0 7.0 0.00 0.00 0.00 91 1017.7
20260508043050 54 135 2.0 7.0 0.00 0.00 0.00 90 1017.6
20260508041614 54 114 3.0 7.0 0.00 0.00 0.00 90 1017.4
20260508040109 55 112 2.0 9.0 0.00 0.00 0.00 88 1017.2
20260508034552 56 119 3.0 8.0 0.00 0.00 0.00 87 1017.0
20260508033049 57 145 3.0 7.0 0.00 0.00 0.00 85 1017.1
20260508031554 58 115 3.0 7.0 0.00 0.00 0.00 84 1016.8
20260508030050 59 132 4.0 11.0 0.00 0.00 0.00 82 1016.7
20260508024604 60 111 3.0 9.0 0.00 0.00 0.00 81 1016.5
20260508023050 61 136 3.0 8.0 0.00 0.00 0.00 79 1016.3
20260508021552 62 123 3.0 8.0 0.00 0.00 0.00 78 1016.5
20260508020053 63 182 4.0 9.0 0.00 0.00 0.00 76 1016.4
20260508014554 64 136 3.0 9.0 0.00 0.00 0.00 75 1016.4
20260508013051 64 140 4.0 9.0 0.00 0.00 0.00 75 1016.5
20260508011556 64 153 5.0 11.0 0.00 0.00 0.00 75 1016.6
20260508010051 65 126 4.0 11.0 0.00 0.00 0.00 74 1016.7
20260508004628 65 114 5.0 12.0 0.00 0.00 0.00 73 1016.8
20260508003103 66 107 7.0 11.0 0.00 0.00 0.00 72 1016.8
20260508001553 67 120 4.0 11.0 0.00 0.00 0.00 72 1016.7
20260508000055 68 141 5.0 10.0 0.00 0.00 0.00 70 1016.7